Torna al catalogo

DELTA 2 R/B(1)

AttivoLEO
NORAD 25510·ROCKET BODY·🇺🇸 United States

Lanciato Oct 24, 1998 da Cape Canaveral Space Force Station

Loading…

Prossimi Passaggi (prossime 24 ore)

TLE

AggiornatoSource: Space-Track

Epoca: Sep 14, 2026, 10:06 UTC

1 25510U 98061C   26257.42106429  .00000511  00000-0  70136-4 0  9995
2 25510  31.4335 157.2279 0304285 232.9256 124.3187 14.44126874464548

Traccia DELTA 2 R/B(1) in tempo reale con AllMySat

Download on the App Store